[[{"header":{"parameterUnit":"m.s-1","parameterCategory":1,"la1":30.2991,"la2":30.254,"lo1":-89.0895,"lo2":-89.0444,"dy":0.0017,"dx":0.0017,"nx":28,"ny":28,"refTime":"2024-10-08T03:00:00:Z","depth":0,"parameterNumber":2,"parameterNumberName":"U-component_of_WINDS"},"data":[0,0,0,0,0,0,0,0,0,0,0,0,0,0,0,0,0,0,0,0,0,0,0,0,0,0,0,0,0,0,0,0,0,0,0,0,0,0,0,0,0,0,0,0,0,0,0,0,0,0,0,0,0,0,0,0,0,0,-2.8117,-2.8118,0,-2.8155,-2.8155,-2.8156,-2.816,-2.816,-2.8159,-2.8159,-2.8197,-2.8199,-2.82,0,0,0,0,0,0,0,0,0,0,0,0,0,-2.805,-2.8051,-2.8117,-2.8118,-2.8118,-2.8155,-2.8155,-2.8156,-2.816,-2.816,-2.8159,-2.8159,-2.8197,-2.8198,-2.82,0,0,0,0,0,0,0,0,0,0,0,0,0,-2.8083,-2.8052,-2.8117,-2.8125,-2.8126,-2.8155,-2.8155,-2.8156,-2.816,-2.8159,-2.8159,-2.8158,-2.8196,-2.8198,-2.82,-2.8224,0,0,-2.8207,-2.8207,0,0,0,0,0,0,0,0,-2.8081,-2.8085,-2.8123,-2.8124,-2.8126,-2.8152,-2.8146,-2.8179,-2.816,-2.8147,-2.8159,-2.8158,-2.8183,-2.8186,-2.8194,-2.8226,-2.8228,-2.8207,-2.8208,-2.8209,-2.8209,0,0,0,0,0,0,0,-2.8079,-2.8083,-2.8132,-2.8124,-2.8125,-2.8126,-2.813,-2.8152,-2.8168,-2.8148,-2.8149,-2.8153,-2.8183,-2.8192,-2.8195,-2.8228,-2.8207,-2.8209,-2.821,-2.8211,-2.8282,-2.8283,0,0,0,0,0,0,-2.8075,-2.8082,-2.8131,-2.8133,-2.8101,-2.8128,-2.8133,-2.8144,-2.8167,-2.817,-2.8153,-2.8153,-2.8189,-2.8193,-2.8196,-2.8226,-2.8209,-2.8211,-2.8212,-2.8282,-2.8282,-2.8283,0,0,0,0,0,0,-2.8073,-2.8079,-2.813,-2.8108,-2.8114,-2.813,-2.8143,-2.8145,-2.8154,-2.8171,-2.8174,-2.8159,-2.8189,-2.8193,-2.8217,-2.8227,-2.8212,-2.8214,-2.8281,-2.8282,-2.8283,-2.8285,0,0,0,0,0,0,-2.8071,-2.8079,-2.8088,-2.8108,-2.8115,-2.815,-2.8143,-2.8146,-2.8158,-2.8157,-2.8178,-2.8181,-2.8188,-2.8214,-2.8219,-2.823,-2.8215,-2.828,-2.8281,-2.8282,-2.8284,-2.8286,-2.8288,0,0,0,0,0,-2.8069,-2.8087,-2.8088,-2.8094,-2.8127,-2.815,-2.8154,-2.8163,-2.8158,-2.8168,-2.8179,-2.818,-2.8226,-2.8217,-2.8222,-2.8234,-2.8279,-2.8281,-2.8282,-2.8284,-2.8286,-2.8288,0,0,0,0,0,0,-2.8067,-2.809,-2.8091,-2.8116,-2.8131,-2.8151,-2.8163,-2.8165,-2.8182,-2.8181,-2.8191,-2.8196,-2.8219,-2.8229,-2.8219,-2.8259,-2.8252,-2.8255,-2.8251,-2.8253,-2.8255,-2.8252,-2.8217,0,0,0,0,0,-2.807,-2.8087,-2.8105,-2.8126,-2.8133,-2.8147,-2.8157,-2.8163,-2.8179,-2.8185,-2.8198,-2.8214,-2.8232,-2.8243,-2.8261,-2.8286,-2.8291,-2.8297,-2.8299,-2.83,-2.8302,-2.8317,-2.832,-2.8288,-2.8288,-2.8288,0,0,-2.8075,-2.8089,-2.8099,-2.8126,-2.8138,-2.8155,-2.8152,-2.817,-2.8184,-2.8188,-2.8211,-2.8221,-2.824,-2.8264,-2.8276,-2.8273,-2.8312,-2.8302,-2.8303,-2.8304,-2.8319,-2.8322,-2.8324,-2.8289,-2.8289,-2.8289,0,0,-2.8093,-2.8106,-2.8124,-2.8137,-2.8156,-2.8165,-2.8169,-2.8189,-2.8196,-2.8219,-2.8223,-2.8239,-2.827,-2.8283,-2.8293,-2.8318,-2.832,-2.8323,-2.8332,-2.8346,-2.8349,-2.8351,-2.836,-2.8363,-2.8326,-2.8326,-2.8326,0,-2.8097,-2.8124,-2.8133,-2.8152,-2.8163,-2.8168,-2.8187,-2.8199,-2.8223,-2.8231,-2.8227,-2.8266,-2.8279,-2.8307,-2.8313,-2.8322,-2.8327,-2.8321,-2.8348,-2.835,-2.8352,-2.8361,-2.8364,-2.8326,-2.8326,-2.8326,-2.8326,0,-2.8128,-2.8146,-2.8159,-2.8181,-2.8195,-2.8213,-2.8226,-2.8238,-2.8242,-2.8252,-2.8276,-2.8292,-2.8313,-2.832,-2.8325,-2.8349,-2.8347,-2.8346,-2.8339,-2.8355,-2.8364,-2.8367,-2.8326,-2.8326,-2.8326,-2.8326,0,0,-2.8145,-2.8174,-2.8178,-2.8189,-2.821,-2.8225,-2.8244,-2.8264,-2.8275,-2.8291,-2.8307,-2.8334,-2.8333,-2.8345,-2.8351,-2.8364,-2.8382,-2.8361,-2.8362,-2.8364,-2.8411,-2.8411,-2.8414,-2.8384,-2.8385,-2.8385,-2.8409,0,-2.8165,-2.8199,-2.8209,-2.8237,-2.8255,-2.826,-2.8277,-2.8293,-2.8302,-2.8319,-2.833,-2.8348,-2.8345,-2.8353,-2.8366,-2.8377,-2.8392,-2.8376,-2.8399,-2.84,-2.8394,-2.8419,-2.8419,-2.844,-2.8412,-2.8413,-2.8413,0,-2.8193,-2.8211,-2.8241,-2.8261,-2.8269,-2.8284,-2.8304,-2.8319,-2.8337,-2.8343,-2.8357,-2.8363,-2.8383,-2.8377,-2.8405,-2.8394,-2.8405,-2.8412,-2.8413,-2.8415,-2.8407,-2.8421,-2.8447,-2.845,-2.8418,-2.8418,-2.8417,0,-2.8203,-2.8234,-2.8256,-2.8265,-2.8289,-2.8299,-2.831,-2.8327,-2.8339,-2.8357,-2.8365,-2.8385,-2.8395,-2.8411,-2.8422,-2.8416,-2.845,-2.8444,-2.8455,-2.8455,-2.8462,-2.8461,-2.8489,-2.8469,-2.8469,-2.8469,-2.8469,0,-2.8224,-2.8242,-2.826,-2.8274,-2.8295,-2.8306,-2.8326,-2.8337,-2.8353,-2.8369,-2.8376,-2.8391,-2.8404,-2.8421,-2.843,-2.8453,-2.8458,-2.8464,-2.8466,-2.8463,-2.8462,-2.8469,-2.8468,-2.847,-2.847,-2.847,-2.8469,0,-2.8237,-2.825,-2.8274,-2.8296,-2.8302,-2.8316,-2.8334,-2.8348,-2.8358,-2.8379,-2.8384,-2.8401,-2.8421,-2.8434,-2.846,-2.8466,-2.8491,-2.8492,-2.8484,-2.8485,-2.8496,-2.8495,-2.853,-2.8535,-2.8512,-2.8512,-2.8512,0,-2.825,-2.8264,-2.8287,-2.8298,-2.8309,-2.8327,-2.8339,-2.8351,-2.8364,-2.8386,-2.8397,-2.8418,-2.8435,-2.8468,-2.8482,-2.8503,-2.8505,-2.8516,-2.8508,-2.8504,-2.8504,-2.8503,-2.8505,-2.8517,-2.8517,-2.8517,-2.8517,0,-2.827,-2.8276,-2.8294,-2.8314,-2.8328,-2.8345,-2.8361,-2.837,-2.8385,-2.8399,-2.842,-2.8433,-2.846,-2.8481,-2.8503,-2.8514,-2.8518,-2.852,-2.8523,-2.852,-2.8515,-2.8518,-2.8487,-2.8519,-2.8518,-2.8518,-2.8518,-2.8518,-2.8283,-2.8296,-2.8315,-2.8334,-2.8348,-2.8363,-2.8377,-2.839,-2.8407,-2.843,-2.8436,-2.8458,-2.8477,-2.8506,-2.8518,-2.8536,-2.8535,-2.854,-2.8541,-2.8542,-2.8542,-2.8513,-2.854,-2.854,-2.854,-2.854,-2.854,0,-2.8304,-2.8316,-2.8334,-2.8357,-2.8373,-2.8375,-2.8394,-2.8407,-2.8426,-2.8443,-2.846,-2.8485,-2.8505,-2.8522,-2.8543,-2.8554,-2.8556,-2.8559,-2.8558,-2.8561,-2.8543,-2.8537,-2.8557,-2.8557,-2.8557,-2.8557,-2.8557,-2.8557,-2.8316,-2.8339,-2.8347,-2.8376,-2.8389,-2.841,-2.8421,-2.8435,-2.8449,-2.8476,-2.8493,-2.8504,-2.8521,-2.8543,-2.8562,-2.8567,-2.8574,-2.8576,-2.8581,-2.8564,-2.8562,-2.856,-2.8555,-2.8578,-2.8578,-2.8598,-2.8598,-2.8598]},{"header":{"parameterUnit":"m.s-1","parameterCategory":1,"la1":30.2991,"la2":30.254,"lo1":-89.0895,"lo2":-89.0444,"dy":0.0017,"dx":0.0017,"nx":28,"ny":28,"refTime":"2024-10-08T03:00:00:Z","depth":0,"parameterNumber":3,"parameterNumberName":"V-component_of_WINDS"},"data":[0,0,0,0,0,0,0,0,0,0,0,0,0,0,0,0,0,0,0,0,0,0,0,0,0,0,0,0,0,0,0,0,0,0,0,0,0,0,0,0,0,0,0,0,0,0,0,0,0,0,0,0,0,0,0,0,0,0,-4.1555,-4.1555,0,-4.1597,-4.1597,-4.1598,-4.158,-4.1579,-4.1578,-4.1577,-4.1617,-4.1619,-4.1621,0,0,0,0,0,0,0,0,0,0,0,0,0,-4.1456,-4.1458,-4.1555,-4.1555,-4.1556,-4.1597,-4.1597,-4.1598,-4.158,-4.1579,-4.1577,-4.1576,-4.1616,-4.1619,-4.1621,0,0,0,0,0,0,0,0,0,0,0,0,0,-4.1499,-4.1459,-4.1554,-4.1552,-4.1552,-4.1597,-4.1597,-4.1598,-4.158,-4.1579,-4.1577,-4.1576,-4.1615,-4.1618,-4.1621,-4.1671,0,0,-4.1631,-4.1632,0,0,0,0,0,0,0,0,-4.1496,-4.1502,-4.1551,-4.1552,-4.1552,-4.1582,-4.1578,-4.1622,-4.158,-4.1569,-4.1577,-4.1575,-4.1606,-4.161,-4.1621,-4.1672,-4.1674,-4.1631,-4.1633,-4.1634,-4.1635,0,0,0,0,0,0,0,-4.1494,-4.1501,-4.1571,-4.1552,-4.1553,-4.1548,-4.1552,-4.1586,-4.1596,-4.157,-4.1569,-4.1574,-4.1606,-4.1618,-4.1622,-4.1675,-4.1631,-4.1633,-4.1635,-4.1636,-4.1772,-4.1774,0,0,0,0,0,0,-4.1491,-4.1498,-4.157,-4.1572,-4.152,-4.1551,-4.1556,-4.1574,-4.1595,-4.1597,-4.1576,-4.1573,-4.1614,-4.1618,-4.1623,-4.1685,-4.1634,-4.1637,-4.1639,-4.1771,-4.1773,-4.1775,0,0,0,0,0,0,-4.1489,-4.1497,-4.1568,-4.1535,-4.1544,-4.1554,-4.1574,-4.1575,-4.1587,-4.1599,-4.1601,-4.1586,-4.1613,-4.1619,-4.166,-4.1686,-4.1638,-4.1641,-4.1768,-4.1771,-4.1774,-4.1808,0,0,0,0,0,0,-4.1486,-4.1497,-4.1516,-4.1536,-4.1546,-4.1605,-4.1576,-4.1577,-4.1593,-4.1591,-4.161,-4.1612,-4.1612,-4.1656,-4.1663,-4.169,-4.1643,-4.1766,-4.177,-4.1773,-4.1805,-4.1811,-4.1817,0,0,0,0,0,-4.1483,-4.1522,-4.1517,-4.1526,-4.157,-4.1606,-4.1612,-4.1612,-4.1595,-4.1615,-4.1623,-4.1611,-4.1682,-4.166,-4.1668,-4.1696,-4.1765,-4.1769,-4.1773,-4.1802,-4.181,-4.1817,0,0,0,0,0,0,-4.1503,-4.1525,-4.1519,-4.1566,-4.1585,-4.1603,-4.1628,-4.1621,-4.1644,-4.164,-4.1639,-4.1643,-4.1687,-4.1695,-4.167,-4.1746,-4.1721,-4.1726,-4.174,-4.1748,-4.1754,-4.1752,-4.1646,0,0,0,0,0,-4.1514,-4.1542,-4.1559,-4.1599,-4.1609,-4.1617,-4.1633,-4.1632,-4.165,-4.1658,-4.1669,-4.1687,-4.1713,-4.173,-4.1755,-4.1805,-4.181,-4.1828,-4.1835,-4.184,-4.1846,-4.1876,-4.1885,-4.1788,-4.1788,-4.1788,0,0,-4.1535,-4.155,-4.1568,-4.1604,-4.1618,-4.1648,-4.1623,-4.1655,-4.1678,-4.1662,-4.1703,-4.1712,-4.1731,-4.1778,-4.1799,-4.1787,-4.1874,-4.1845,-4.1849,-4.1852,-4.1881,-4.189,-4.1898,-4.1791,-4.179,-4.179,0,0,-4.1589,-4.1603,-4.164,-4.1655,-4.1678,-4.1683,-4.1692,-4.1712,-4.1718,-4.1759,-4.1749,-4.1775,-4.182,-4.1836,-4.185,-4.1913,-4.1904,-4.1921,-4.1955,-4.1985,-4.1992,-4.1999,-4.2025,-4.2034,-4.1926,-4.1926,-4.1926,0,-4.1613,-4.1658,-4.1659,-4.1693,-4.171,-4.1699,-4.1737,-4.1751,-4.178,-4.1793,-4.1778,-4.1837,-4.1849,-4.1901,-4.1917,-4.1927,-4.1938,-4.192,-4.1991,-4.1998,-4.2005,-4.2029,-4.2038,-4.1928,-4.1928,-4.1928,-4.1928,0,-4.1687,-4.1719,-4.1746,-4.1777,-4.1797,-4.1832,-4.1839,-4.1858,-4.1856,-4.1863,-4.1906,-4.1921,-4.195,-4.1962,-4.1958,-4.2014,-4.2006,-4.1991,-4.1966,-4.2016,-4.2039,-4.2048,-4.1931,-4.1931,-4.193,-4.193,0,0,-4.1756,-4.1789,-4.1799,-4.1815,-4.184,-4.1865,-4.19,-4.193,-4.1949,-4.1969,-4.2,-4.204,-4.2027,-4.2043,-4.2042,-4.2067,-4.212,-4.205,-4.205,-4.2065,-4.2186,-4.2199,-4.2209,-4.2114,-4.2116,-4.2117,-4.2185,0,-4.1815,-4.1879,-4.1882,-4.1941,-4.1972,-4.1962,-4.1994,-4.2013,-4.202,-4.2047,-4.2055,-4.2085,-4.2065,-4.2075,-4.2099,-4.2109,-4.2145,-4.2103,-4.2144,-4.2145,-4.2142,-4.2221,-4.2234,-4.2298,-4.2194,-4.2195,-4.2196,0,-4.1892,-4.1919,-4.1981,-4.2005,-4.2018,-4.2046,-4.2076,-4.2101,-4.2123,-4.2127,-4.2146,-4.2142,-4.2179,-4.2151,-4.2203,-4.2175,-4.2191,-4.2199,-4.2201,-4.2207,-4.2176,-4.2231,-4.2318,-4.2329,-4.221,-4.2209,-4.2208,0,-4.194,-4.199,-4.2035,-4.2048,-4.2076,-4.2097,-4.211,-4.213,-4.2149,-4.2174,-4.2187,-4.2215,-4.2232,-4.2254,-4.2258,-4.2236,-4.2311,-4.2282,-4.2317,-4.2317,-4.2334,-4.2334,-4.2427,-4.234,-4.234,-4.234,-4.234,0,-4.2007,-4.2046,-4.2058,-4.2086,-4.213,-4.2132,-4.2176,-4.2187,-4.2206,-4.2236,-4.2228,-4.2256,-4.2258,-4.2287,-4.229,-4.2334,-4.234,-4.2346,-4.2347,-4.2348,-4.2348,-4.2361,-4.2357,-4.2343,-4.2342,-4.2342,-4.2341,0,-4.2069,-4.2078,-4.2127,-4.215,-4.2157,-4.2189,-4.2209,-4.2236,-4.2244,-4.2282,-4.2291,-4.2303,-4.2337,-4.2343,-4.2381,-4.2384,-4.2438,-4.2432,-4.2431,-4.2432,-4.2467,-4.2465,-4.2574,-4.259,-4.249,-4.2491,-4.2492,0,-4.2112,-4.2143,-4.2171,-4.2192,-4.2206,-4.2238,-4.2259,-4.2262,-4.2284,-4.2313,-4.2337,-4.237,-4.2398,-4.2453,-4.2465,-4.2495,-4.2492,-4.2529,-4.2497,-4.2499,-4.2497,-4.2496,-4.25,-4.2535,-4.2536,-4.2537,-4.2538,0,-4.219,-4.2194,-4.2224,-4.2257,-4.2282,-4.2307,-4.2331,-4.2348,-4.2355,-4.238,-4.2416,-4.2437,-4.2479,-4.2513,-4.2544,-4.2557,-4.255,-4.2548,-4.2558,-4.2561,-4.2561,-4.2565,-4.2451,-4.2546,-4.2545,-4.2544,-4.2544,-4.2544,-4.2246,-4.2274,-4.2299,-4.2334,-4.2353,-4.2377,-4.2405,-4.2417,-4.2447,-4.2483,-4.2483,-4.2523,-4.2546,-4.2587,-4.2602,-4.2633,-4.2622,-4.2635,-4.2639,-4.2643,-4.2649,-4.2554,-4.2638,-4.2638,-4.2638,-4.2638,-4.2637,0,-4.2326,-4.2342,-4.2374,-4.241,-4.2438,-4.2429,-4.2456,-4.248,-4.2516,-4.2539,-4.2567,-4.261,-4.2643,-4.2658,-4.2692,-4.2714,-4.2712,-4.2723,-4.2723,-4.2727,-4.2655,-4.2645,-4.2725,-4.2725,-4.2725,-4.2725,-4.2725,-4.2725,-4.2371,-4.2419,-4.2426,-4.2485,-4.25,-4.2542,-4.2558,-4.258,-4.2599,-4.2647,-4.2676,-4.2686,-4.2707,-4.2742,-4.2773,-4.2777,-4.2791,-4.2804,-4.2806,-4.274,-4.2731,-4.2723,-4.2713,-4.2806,-4.2806,-4.2875,-4.2876,-4.2877]}]]